Wind_Speed
13 13 13 12 12 12 12 12 12 12 11 11 10 10 10 11 11 11 12 13 14 14 14 15 15 15 15 15 15 15 15 15 15 16 16 16 16 16 17 17 17 17 17 17
15 15 14 13 13 14 13 12 12 12 12 12 11 11 11 11 11 12 12 13 14 15 15 15 15 16 15 15 15 16 16 16 16 17 17 17 17 17 17 17 17 17 17 18
17 16 16 15 13 14 14 13 13 12 11 12 12 12 12 11 12 12 13 14 15 15 15 14 14 14 14 15 15 15 16 16 16 17 17 17 17 17 18 18 18 19 19 19
18 17 18 15 14 14 14 14 13 12 11 12 12 12 12 12 12 12 13 14 14 14 14 14 14 14 15 16 16 16 16 16 17 17 17 17 17 18 18 19 19 19 19 19
19 19 18 17 15 15 15 14 14 13 12 12 12 12 12 13 13 13 14 14 14 14 14 14 15 15 16 17 17 17 17 17 18 18 18 18 18 19 19 19 19 19 19 19
20 20 20 18 17 17 16 16 15 14 13 13 13 13 13 14 14 14 15 15 15 15 15 16 16 16 16 16 17 17 17 18 19 19 19 19 19 19 19 19 19 19 19 20
21 22 21 20 19 18 18 16 16 16 15 15 15 14 14 14 15 15 15 16 16 16 16 17 17 16 17 17 17 17 17 18 19 19 19 19 19 19 19 19 20 20 20 21
21 22 21 21 20 19 19 18 17 17 16 16 16 16 15 15 15 15 16 16 16 17 17 17 18 18 17 17 18 18 18 19 19 20 19 19 20 20 20 20 21 21 22 23
22 22 21 21 21 20 20 19 18 18 17 17 17 17 17 17 16 16 17 16 17 17 17 18 18 19 19 19 19 19 20 20 21 21 21 21 21 22 22 22 22 23 23 24
23 23 22 22 22 21 21 20 19 19 18 18 18 18 18 18 17 17 18 18 18 18 18 19 20 21 21 21 21 22 22 22 22 22 22 22 23 23 24 24 24 24 24 25
24 24 23 22 22 22 21 21 20 20 19 19 19 18 18 19 19 19 19 19 19 19 19 20 21 22 22 23 23 23 24 24 24 23 23 23 24 24 25 25 25 26 26 26
25 25 25 23 22 22 22 22 21 21 20 20 20 19 19 20 20 20 20 20 20 20 19 20 20 21 22 23 24 24 24 24 24 24 24 24 25 26 26 27 27 28 28 29
26 26 26 25 24 23 23 22 22 22 21 21 21 21 21 22 22 22 22 22 22 22 22 22 22 22 23 24 24 24 25 25 25 26 26 26 27 28 29 29 30 30 31 32
26 27 27 27 26 25 24 23 23 23 22 22 22 22 22 22 22 22 22 23 23 23 23 23 24 24 24 24 25 25 26 27 28 29 29 29 29 30 31 32 33 33 33 34
27 27 27 27 26 26 25 24 24 24 24 24 23 23 23 23 23 23 23 24 24 25 24 24 25 25 26 26 27 28 28 29 29 30 31 31 32 33 33 34 34 35 35 36
27 27 27 28 27 26 26 25 25 24 24 24 24 24 24 24 24 24 24 24 25 25 26 26 26 27 28 29 29 29 30 30 31 31 32 33 33 33 34 35 35 36 37 37
28 27 27 28 29 28 26 26 25 25 26 25 25 25 25 24 24 24 25 26 26 27 27 28 28 29 30 31 31 30 31 31 32 32 32 33 33 34 34 35 36 37 38 39
28 28 28 29 29 29 27 27 26 27 27 26 26 25 25 25 25 26 26 26 27 28 28 29 29 29 30 30 31 31 32 32 32 32 32 33 34 35 35 36 37 38 39 40
28 29 29 29 29 29 29 28 28 27 27 27 26 26 26 26 26 26 26 27 28 29 29 29 29 30 30 31 32 32 32 32 32 33 34 34 35 36 36 37 38 39 39 40
28 29 28 29 29 29 29 29 29 28 28 27 27 27 27 27 27 27 27 27 27 28 28 29 30 30 31 31 31 32 32 32 33 34 35 36 36 36 37 38 39 40 40 40
29 29 29 29 30 29 29 30 29 29 29 29 28 28 28 28 28 28 28 28 28 29 29 30 30 30 31 31 31 32 32 33 34 35 36 36 36 37 38 39 39 40 41 41
30 30 30 30 30 30 30 30 30 30 30 29 29 29 29 29 29 29 29 29 29 30 30 30 30 31 32 32 33 34 34 34 34 34 35 36 36 37 38 39 39 40 41 41
30 30 30 30 30 31 31 31 31 30 30 31 30 30 30 30 30 30 30 30 30 30 30 31 31 32 33 33 34 34 33 33 34 34 35 36 37 37 38 39 40 40 41 41
31 30 30 30 31 31 31 31 31 31 31 31 31 31 31 30 30 30 30 30 30 31 31 32 33 33 33 33 32 32 33 33 34 35 36 37 37 38 38 39 40 40 40 40
31 31 31 31 31 31 31 31 31 31 31 31 31 31 31 30 30 30 30 30 31 31 32 33 33 33 33 33 33 33 33 33 34 35 36 36 37 37 38 39 39 39 39 39
31 30 30 31 31 30 30 30 31 31 31 31 31 31 31 30 30 30 30 30 31 31 31 32 32 32 32 32 32 33 34 34 34 35 36 36 37 37 38 38 39 38 38 38
30 31 30 30 30 30 30 30 31 31 30 30 30 30 30 31 31 31 31 31 31 30 31 31 31 31 31 31 32 32 33 33 34 35 36 36 37 37 38 38 38 38 38 38
Wind_Direction
245 249 251 249 247 247 247 248 245 242 244 250 250 252 251 251 251 249 248 250 250 250 251 248 249 250 250 251 253 254 255 256 258 261 264 265 266 268 270 274 276 277 279 281
247 248 251 251 250 249 250 253 251 245 243 248 253 254 253 253 251 250 249 251 252 252 252 252 252 252 250 252 256 257 258 258 259 263 266 267 269 271 272 273 275 277 279 282
247 247 250 250 253 251 249 253 254 252 247 249 254 256 251 250 249 252 253 254 256 256 255 255 255 256 255 256 258 260 261 262 262 265 267 267 269 271 272 273 274 276 278 281
247 248 250 250 251 252 251 250 251 251 251 254 258 257 254 254 255 257 257 259 260 258 257 258 256 260 259 259 260 261 262 263 265 269 270 272 271 272 274 274 275 278 279 280
246 247 248 247 250 251 251 250 250 251 249 251 254 254 255 258 259 259 259 260 262 263 259 260 260 263 263 262 262 263 263 265 268 269 271 274 274 274 275 276 276 277 279 280
245 247 249 248 248 249 251 249 248 250 250 253 254 256 259 260 260 260 261 262 263 262 260 260 261 263 265 265 266 265 265 267 268 269 271 273 274 275 276 277 277 277 279 281
247 249 250 251 250 250 251 252 249 250 251 254 256 258 260 262 262 264 264 262 261 260 261 260 259 262 265 266 268 266 266 267 268 270 271 272 273 276 277 277 278 279 280 280
248 247 249 251 250 250 251 251 251 251 252 255 257 260 261 263 266 266 267 264 261 259 260 259 260 262 265 265 266 266 267 268 269 270 270 270 272 275 277 279 280 281 283 282
247 248 249 250 251 250 251 252 251 251 252 254 257 260 262 264 267 268 269 267 263 262 263 261 262 262 264 265 264 265 268 269 270 270 270 271 272 275 278 279 281 283 284 284
248 248 247 250 251 250 250 250 252 252 253 255 257 260 263 265 265 266 267 266 263 262 263 265 265 265 265 264 265 267 269 271 270 270 271 271 274 277 279 281 282 283 284 285
247 246 246 247 249 249 248 249 249 252 252 253 255 259 262 263 264 265 266 266 266 265 266 266 266 265 266 268 269 270 272 272 273 274 273 273 276 278 280 282 284 285 286 287
245 243 244 245 246 247 248 249 249 251 253 254 257 260 262 263 265 265 265 266 267 266 267 268 269 269 269 270 271 273 274 274 275 276 276 277 279 280 282 283 285 286 287 288
246 245 244 243 244 245 247 248 250 252 254 257 259 261 263 264 265 266 265 265 266 266 267 268 270 271 271 272 272 272 272 272 273 276 278 279 280 282 283 283 284 285 286 287
247 247 245 242 243 245 247 248 250 252 254 258 260 261 263 263 264 265 266 267 266 265 266 268 270 271 270 271 272 272 273 274 275 277 279 281 282 283 284 285 286 287 288 289
248 247 244 243 242 242 245 248 250 251 253 256 259 261 262 263 264 265 266 266 266 265 267 269 271 272 272 274 274 275 276 277 278 280 280 282 283 284 286 287 288 288 289 290
247 247 245 243 243 242 244 248 251 252 254 256 259 261 262 263 265 265 266 266 266 267 269 271 272 273 274 275 275 276 277 279 280 281 282 283 284 285 286 288 289 290 290 291
247 246 245 244 243 243 245 248 252 253 254 256 258 260 261 263 266 269 270 269 269 269 270 272 274 275 276 277 277 278 279 280 281 281 282 284 285 286 287 289 290 290 291 292
247 246 246 245 244 244 246 249 252 253 255 257 260 261 262 264 267 269 271 272 272 272 272 273 274 277 278 279 278 278 279 280 280 281 282 283 285 287 288 290 291 292 292 292
247 247 247 246 244 245 247 249 251 253 255 257 260 263 265 267 268 270 272 274 275 275 274 275 277 277 278 278 278 279 279 280 281 281 282 284 285 286 288 289 291 292 292 292
248 248 248 248 245 245 247 248 250 253 255 258 261 263 265 267 270 271 273 275 276 275 276 277 278 278 278 278 278 279 280 280 282 283 283 284 286 287 288 289 291 291 292 292
248 247 247 247 246 245 247 249 251 253 255 257 261 263 265 267 271 274 275 276 276 276 278 279 279 279 278 278 279 280 280 281 282 283 285 286 286 288 289 291 292 292 292 293
248 247 246 246 246 247 248 250 252 254 255 258 261 263 266 269 272 274 276 277 277 277 278 279 280 279 279 280 280 281 282 283 284 285 286 288 289 290 291 292 293 293 293 294
247 246 246 247 248 249 250 251 253 255 257 259 261 264 267 270 272 275 276 277 277 277 278 278 279 280 281 281 281 282 283 285 286 286 287 289 289 291 293 294 294 294 294 295
247 248 248 249 249 249 251 252 254 256 258 260 262 264 267 270 272 275 276 277 278 279 279 279 279 280 281 282 283 283 284 286 287 287 287 289 290 292 294 294 295 295 295 296
247 248 250 250 250 250 251 252 254 256 258 260 262 264 266 269 271 273 275 277 278 279 279 280 280 281 281 282 284 285 286 287 288 289 289 291 293 294 294 295 296 296 297 297
247 247 249 249 249 250 251 252 253 255 258 260 262 263 265 268 270 272 275 277 278 280 281 282 282 283 282 283 284 285 287 288 289 290 292 294 294 294 294 295 296 297 298 299
249 249 249 248 249 249 250 252 253 255 258 260 262 263 264 266 270 273 274 276 278 280 282 283 283 284 284 285 285 287 289 290 290 291 293 294 294 295 295 295 296 297 298 299
Height
5830 5831 5831 5832 5833 5834 5834 5835 5836 5837 5837 5838 5838 5838 5838 5838 5839 5840 5840 5841 5842 5843 5844 5845 5846 5847 5848 5849 5849 5850 5850 5851 5851 5851 5851 5851 5851 5851 5851 5850 5850 5849 5848 5847
5826 5827 5827 5828 5829 5830 5830 5831 5832 5833 5834 5834 5834 5835 5835 5835 5836 5836 5837 5838 5839 5840 5840 5841 5842 5843 5844 5844 5845 5846 5846 5846 5847 5847 5847 5847 5847 5846 5846 5846 5845 5844 5844 5843
5822 5823 5823 5825 5826 5826 5827 5828 5829 5830 5832 5831 5831 5831 5832 5832 5833 5833 5834 5835 5835 5836 5837 5837 5838 5839 5840 5840 5841 5841 5842 5842 5842 5842 5842 5842 5842 5841 5841 5841 5840 5839 5838 5837
5817 5819 5819 5824 5822 5823 5824 5824 5825 5826 5827 5827 5828 5828 5828 5829 5830 5830 5831 5831 5831 5832 5833 5833 5834 5835 5835 5836 5836 5837 5837 5837 5838 5838 5837 5837 5837 5836 5836 5835 5834 5833 5832 5831
5812 5813 5815 5818 5818 5819 5820 5821 5822 5823 5823 5824 5824 5824 5825 5825 5826 5826 5827 5827 5828 5828 5829 5829 5830 5830 5831 5831 5832 5832 5832 5833 5833 5833 5832 5832 5831 5831 5830 5829 5828 5828 5827 5826
5806 5808 5809 5813 5814 5814 5816 5817 5818 5819 5820 5820 5820 5821 5822 5822 5822 5822 5822 5823 5823 5824 5824 5825 5825 5826 5826 5827 5827 5827 5827 5827 5827 5827 5827 5826 5826 5825 5824 5824 5823 5822 5821 5820
5800 5801 5803 5806 5808 5810 5812 5813 5814 5814 5815 5816 5816 5817 5818 5817 5818 5818 5818 5818 5819 5819 5819 5820 5821 5821 5821 5822 5822 5822 5822 5822 5822 5822 5821 5821 5820 5820 5819 5818 5817 5816 5815 5814
5794 5795 5799 5800 5802 5804 5806 5807 5808 5809 5810 5811 5812 5812 5812 5813 5813 5813 5813 5813 5813 5814 5814 5815 5815 5816 5816 5816 5816 5816 5816 5816 5816 5816 5816 5815 5815 5814 5813 5812 5811 5810 5809 5807
5789 5792 5793 5794 5795 5797 5799 5801 5802 5803 5804 5805 5806 5807 5807 5808 5808 5808 5808 5808 5808 5809 5809 5809 5810 5810 5811 5811 5811 5811 5811 5810 5810 5810 5809 5809 5808 5808 5807 5806 5805 5803 5802 5800
5781 5783 5785 5787 5788 5790 5792 5794 5796 5797 5798 5800 5801 5801 5802 5802 5802 5802 5802 5802 5803 5803 5803 5804 5804 5804 5804 5805 5805 5805 5804 5804 5803 5803 5803 5802 5802 5801 5800 5799 5798 5796 5794 5793
5773 5776 5778 5780 5782 5784 5786 5788 5789 5791 5792 5793 5794 5795 5796 5796 5796 5797 5797 5797 5797 5797 5797 5798 5798 5798 5798 5798 5798 5798 5798 5797 5797 5796 5796 5795 5795 5794 5793 5792 5790 5789 5787 5785
5765 5768 5770 5773 5775 5777 5779 5781 5783 5784 5786 5787 5788 5789 5789 5790 5790 5790 5790 5791 5791 5791 5791 5791 5791 5791 5791 5791 5791 5791 5791 5790 5790 5789 5789 5788 5787 5786 5784 5783 5782 5780 5778 5776
5757 5759 5762 5765 5767 5769 5771 5773 5775 5777 5779 5780 5781 5782 5782 5783 5783 5784 5784 5784 5784 5784 5784 5784 5784 5784 5784 5784 5784 5783 5783 5783 5782 5781 5781 5780 5778 5777 5776 5775 5773 5771 5769 5767
5748 5751 5753 5756 5759 5761 5764 5766 5768 5769 5771 5772 5773 5774 5775 5775 5776 5776 5776 5777 5777 5777 5777 5777 5777 5777 5776 5776 5776 5775 5775 5774 5774 5773 5772 5771 5770 5768 5767 5765 5764 5761 5759 5757
5740 5742 5745 5748 5751 5753 5755 5758 5760 5762 5763 5765 5766 5766 5767 5768 5768 5769 5769 5769 5769 5769 5769 5769 5769 5769 5768 5768 5768 5767 5766 5766 5764 5763 5762 5761 5760 5759 5757 5755 5753 5751 5748 5746
5731 5733 5736 5739 5742 5745 5747 5749 5752 5754 5755 5757 5758 5759 5759 5760 5760 5761 5761 5761 5761 5761 5761 5760 5760 5760 5759 5759 5758 5757 5757 5756 5755 5753 5752 5751 5749 5748 5746 5744 5742 5739 5737 5734
5723 5725 5728 5731 5734 5737 5739 5742 5744 5746 5747 5748 5750 5750 5751 5751 5752 5752 5753 5752 5752 5752 5752 5752 5751 5751 5750 5749 5748 5747 5746 5745 5744 5743 5742 5740 5739 5737 5735 5733 5730 5728 5725 5721
5714 5717 5720 5722 5725 5728 5731 5733 5735 5737 5739 5740 5741 5742 5743 5743 5744 5744 5744 5744 5743 5743 5743 5742 5742 5741 5740 5739 5738 5736 5735 5734 5733 5732 5731 5729 5728 5726 5723 5721 5718 5716 5713 5709
5706 5708 5711 5713 5716 5719 5722 5724 5726 5728 5730 5731 5733 5734 5734 5735 5735 5735 5735 5735 5734 5734 5733 5733 5732 5731 5730 5729 5727 5726 5725 5723 5722 5721 5720 5718 5716 5714 5712 5709 5706 5703 5700 5697
5697 5700 5702 5704 5707 5710 5712 5715 5717 5719 5721 5722 5724 5725 5725 5726 5726 5726 5725 5725 5725 5724 5724 5723 5722 5721 5720 5718 5717 5715 5714 5713 5712 5710 5708 5707 5705 5702 5700 5697 5694 5691 5688 5684
5688 5691 5693 5695 5698 5700 5703 5706 5708 5710 5711 5713 5714 5715 5716 5716 5716 5716 5716 5716 5715 5714 5714 5713 5712 5710 5709 5708 5706 5705 5704 5702 5701 5699 5697 5695 5693 5691 5688 5686 5682 5679 5675 5672
5679 5681 5684 5686 5689 5691 5694 5696 5698 5700 5702 5704 5705 5706 5706 5707 5707 5707 5706 5706 5705 5705 5704 5703 5702 5700 5699 5698 5696 5695 5693 5691 5689 5688 5686 5684 5682 5679 5676 5673 5670 5666 5663 5659
5670 5672 5675 5677 5680 5682 5685 5687 5689 5691 5692 5694 5695 5696 5697 5697 5697 5697 5697 5696 5695 5694 5693 5693 5692 5690 5689 5687 5686 5684 5682 5680 5679 5677 5675 5673 5670 5667 5664 5661 5658 5654 5650 5647
5661 5663 5665 5668 5670 5672 5675 5677 5679 5681 5682 5683 5685 5685 5686 5687 5687 5686 5686 5686 5685 5684 5683 5682 5681 5680 5678 5676 5675 5673 5671 5670 5668 5666 5664 5661 5659 5656 5652 5649 5645 5642 5638 5634
5651 5653 5656 5658 5660 5663 5665 5667 5669 5671 5672 5673 5674 5675 5676 5676 5676 5676 5676 5676 5675 5674 5673 5672 5670 5669 5667 5666 5664 5663 5661 5659 5657 5655 5652 5649 5646 5643 5640 5636 5633 5629 5626 5622
5641 5644 5646 5648 5650 5653 5655 5657 5659 5660 5662 5663 5664 5665 5665 5666 5666 5666 5666 5665 5665 5663 5662 5661 5659 5658 5656 5655 5653 5652 5650 5648 5645 5643 5640 5637 5634 5631 5628 5625 5621 5617 5614 5610
5632 5634 5636 5638 5640 5643 5645 5647 5648 5650 5652 5653 5654 5654 5655 5656 5656 5656 5655 5655 5654 5653 5652 5651 5649 5648 5646 5645 5643 5641 5639 5636 5634 5631 5628 5625 5622 5619 5616 5613 5609 5606 5602 5599